sat.trackr.live / text

‹ back to catalog

STARLINK-35996

NORAD 66800 · 2025-278K

PAYLOAD ACTIVE UNKNOWN

§ Identity

Operator
Country
US
Launch date
2025-12-01
Launch site
AFETR
Launch vehicle
Mass (kg)
RCS (m²)

Purposes: comms

External: N2YO · Heavens-Above · Gunter

§ Orbital elements

Epoch: 2026-05-24T17:43:22.386720Z

Period
94.27 min
Inclination
43.0032°
Eccentricity
0.0001593
Mean motion
15.27606001 rev/d
Perigee alt
481.9 km
Apogee alt
484.1 km
Semi-major
6,861.1 km
B*
1.3662e-3
RAAN
44.5482°
Arg perigee
279.4366°
Mean anomaly
80.6306°
Rev number
2,684

§ Raw data

STARLINK-359961 66800U 25278K   26144.73845355  .00037555  00000+0  13662-2 0  99952 66800  43.0032  44.5482 0001593 279.4366  80.6306 15.27606001 26847

JSON: /api/v1/satellites/66800 · /tle

For live sub-satellite position, see the globe view (requires WebGL).

§ Visibility from observer

Set your observer location to see the next 7 days of passes ≥ 10°. The values pass through the URL so the page stays shareable.

No JS? Fill the form by hand. The geolocation button needs JavaScript.